DMSP 5D-2 F13 DEB, 40582

Orbit data source: Space-Track

DMSP 5D-2 F13 DEB, 40582 is space debris in SSO originally from a launch on Fri, 24 Mar 1995 UTC launched from the Air Force Western Test Range (AFWTR). Debris objects in space refer to the collection of defunct objects orbiting the Earth. Examples of debris include non-operational satellites, rocket bodies, and fragments generated from explosions, collisions, or faulty payload assembly.

Loading next visibility...
Identifier
40582, 1995-015ER
Orbit
SSO
Country
Flag of USUS
Related business
Manufacturer
Unknown
Mission
Spacecraft
Bus & Motor
Unknown
Mass
Unknown
Launch date (UTC)
1995-03-24 (31 years ago)
Launch vehicle
Unknown
Launch site
Air Force Western Test Range (AFWTR)
Object type
Payload
Rocket body
Debris
Shape & HBR
Unknown shape, 0.1 m
Radar Cross Section
Small (<0.1 m²)

Expand to show TLE details & history
Last TLE update: 2 days ago

TLE from 2 days ago
0 DMSP 5D-2 F13 DEB
1 40582U 95015ER  26171.18703954  .00005128  00000-0  19785-2 0  9991
2 40582  98.7170  78.3790 0074070 109.8004 251.1183 14.29129367574895
Epoch: 2026-06-20T04:29Z
TLE epoch observation values (Epoch: 2026-06-20T04:29:20.216Z)
Latitude
0.00002°
Longitude
102.6395°
Altitude
815.117 km
Speed
7.437 km/s
True Right ascension
05h 13m 30s
True Declination
0° 00' 00"
Sunlit
Object was in daylight at epoch
Visualization orbit readout
Latitude
Unknown
Longitude
Unknown
Altitude
Unknown
Speed
Unknown
Apparent Right ascension
Unknown
Apparent Declination
Unknown
Sunlit
N/A
Visualization observer readout
Local Sidereal Time
21:52:10
Azimuth
Unknown
Elevation
Unknown
Doppler factor
Unknown
Orbital elements
Apogee altitude
844.897 km
Perigee altitude
738.681 km
Semi-major axis
7,169.926 km
Eccentricity
0.00741
Inclination
98.717°
RAAN
78.379°
Arg. of periapsis
109.8004°
True anomaly
250.31762°
Mean anomaly
251.1183°
Eccentric anomaly
250.71772°
Mean motion
3.57496 °/min
Orbital period
100.7 mins
BSTAR
0.0019785

Documentation

Showing up to 5 results
|